Time,TemperatureF,DewpointF,PressureIn,WindDirection,WindDirectionDegrees,WindSpeedMPH,WindSpeedGustMPH,Humidity,HourlyPrecipIn,Conditions,Clouds,dailyrainin,SolarRadiationWatts/m^2,SoftwareType,DateUTC
2013-04-30 00:04:00,62.3,55.4,29.80,SSE,153,11.0,15.0,78,0.00,,CLR,0.00,0.00,VWS V14.01,2013-04-30 05:04:00,
2013-04-30 00:09:00,62.1,55.2,29.80,ESE,121,9.0,13.0,78,0.00,,CLR,0.00,0.00,VWS V14.01,2013-04-30 05:09:00,
2013-04-30 00:14:00,62.0,55.4,29.80,SSE,153,10.0,12.0,79,0.00,,CLR,0.00,0.00,VWS V14.01,2013-04-30 05:14:00,
2013-04-30 00:19:00,62.0,55.4,29.81,SE,141,14.0,14.0,79,0.00,,CLR,0.00,0.00,VWS V14.01,2013-04-30 05:19:00,
2013-04-30 00:24:00,61.8,55.2,29.81,SE,132,13.0,18.0,79,0.00,,CLR,0.00,0.00,VWS V14.01,2013-04-30 05:24:00,
2013-04-30 00:29:00,61.6,55.0,29.81,SSE,161,9.0,15.0,79,0.00,,CLR,0.00,0.00,VWS V14.01,2013-04-30 05:29:00,
2013-04-30 00:34:00,61.5,55.3,29.81,SSE,152,8.0,16.0,80,0.00,,CLR,0.00,0.00,VWS V14.01,2013-04-30 05:34:00,
2013-04-30 00:39:00,61.3,55.1,29.80,SSE,157,14.0,17.0,80,0.00,,CLR,0.00,0.00,VWS V14.01,2013-04-30 05:39:00,
2013-04-30 00:44:00,61.2,55.0,29.80,SSE,157,9.0,12.0,80,0.00,,CLR,0.00,0.00,VWS V14.01,2013-04-30 05:44:00,
2013-04-30 00:49:00,61.0,55.1,29.80,SSE,156,9.0,15.0,81,0.00,,CLR,0.00,0.00,VWS V14.01,2013-04-30 05:49:00,
2013-04-30 00:54:00,60.9,55.0,29.80,SE,146,8.0,13.0,81,0.00,,CLR,0.00,0.00,VWS V14.01,2013-04-30 05:54:00,
2013-04-30 00:59:00,60.9,55.0,29.80,SSE,148,10.0,13.0,81,0.00,,CLR,0.00,0.00,VWS V14.01,2013-04-30 05:59:00,
2013-04-30 01:04:00,60.9,55.0,29.80,SE,140,11.0,14.0,81,0.00,,CLR,0.00,0.00,VWS V14.01,2013-04-30 06:04:00,
2013-04-30 01:09:00,60.9,55.0,29.79,SE,136,11.0,15.0,81,0.00,,CLR,0.00,0.00,VWS V14.01,2013-04-30 06:09:00,
2013-04-30 01:14:00,60.9,55.0,29.79,SE,144,12.0,13.0,81,0.00,,CLR,0.00,0.00,VWS V14.01,2013-04-30 06:14:00,
2013-04-30 01:19:00,60.9,55.0,29.79,SSE,160,9.0,12.0,81,0.00,,CLR,0.00,0.00,VWS V14.01,2013-04-30 06:19:00,
2013-04-30 01:24:00,61.0,55.1,29.79,SSE,162,17.0,17.0,81,0.00,,CLR,0.00,0.00,VWS V14.01,2013-04-30 06:24:00,
2013-04-30 01:29:00,61.2,55.3,29.79,SSE,157,14.0,18.0,81,0.00,,CLR,0.00,0.00,VWS V14.01,2013-04-30 06:29:00,
2013-04-30 01:34:00,61.3,55.4,29.79,SSE,155,11.0,12.0,81,0.00,,CLR,0.00,0.00,VWS V14.01,2013-04-30 06:34:00,
2013-04-30 01:39:00,61.3,55.1,29.79,SSE,158,9.0,10.0,80,0.00,,CLR,0.00,0.00,VWS V14.01,2013-04-30 06:39:00,
2013-04-30 01:44:00,61.3,55.4,29.79,SSE,148,7.0,11.0,81,0.00,,CLR,0.00,0.00,VWS V14.01,2013-04-30 06:44:00,
2013-04-30 01:50:00,61.3,55.4,29.79,SE,138,9.0,15.0,81,0.00,,CLR,0.00,0.00,VWS V14.01,2013-04-30 06:50:00,
2013-04-30 01:55:00,61.2,55.3,29.79,SSE,153,9.0,15.0,81,0.00,,CLR,0.00,0.00,VWS V14.01,2013-04-30 06:55:00,
2013-04-30 02:01:00,61.2,55.3,29.79,SSE,163,15.0,15.0,81,0.00,,CLR,0.00,0.00,VWS V14.01,2013-04-30 07:01:00,
2013-04-30 02:07:00,61.2,55.3,29.79,SSE,155,13.0,15.0,81,0.00,,CLR,0.00,0.00,VWS V14.01,2013-04-30 07:07:00,
2013-04-30 02:13:00,61.2,55.3,29.79,SSE,159,13.0,16.0,81,0.00,,CLR,0.00,0.00,VWS V14.01,2013-04-30 07:13:00,
2013-04-30 02:18:00,61.0,55.1,29.79,SSE,149,8.0,15.0,81,0.00,,CLR,0.00,0.00,VWS V14.01,2013-04-30 07:18:00,
2013-04-30 02:23:00,61.0,55.5,29.78,SSE,157,8.0,10.0,82,0.00,,CLR,0.00,0.00,VWS V14.01,2013-04-30 07:23:00,
2013-04-30 02:28:00,61.0,55.5,29.78,SSE,167,14.0,15.0,82,0.00,,CLR,0.00,0.00,VWS V14.01,2013-04-30 07:28:00,
2013-04-30 02:33:00,61.0,55.5,29.78,SSE,162,14.0,18.0,82,0.00,,CLR,0.00,0.00,VWS V14.01,2013-04-30 07:33:00,
2013-04-30 02:38:00,60.9,55.4,29.78,SE,130,13.0,18.0,82,0.00,,CLR,0.00,0.00,VWS V14.01,2013-04-30 07:38:00,
2013-04-30 02:43:00,60.9,55.7,29.79,SSE,160,12.0,21.0,83,0.00,,CLR,0.00,0.00,VWS V14.01,2013-04-30 07:43:00,
2013-04-30 02:48:00,60.9,55.7,29.79,SSE,156,16.0,18.0,83,0.00,,CLR,0.00,0.00,VWS V14.01,2013-04-30 07:48:00,
2013-04-30 02:53:00,61.0,55.8,29.79,SE,144,15.0,15.0,83,0.00,,CLR,0.00,0.00,VWS V14.01,2013-04-30 07:53:00,
2013-04-30 02:58:00,61.0,55.8,29.79,SSE,163,13.0,17.0,83,0.00,,CLR,0.00,0.00,VWS V14.01,2013-04-30 07:58:00,
2013-04-30 03:03:00,60.9,55.7,29.79,SE,144,20.0,22.0,83,0.00,,CLR,0.00,0.00,VWS V14.01,2013-04-30 08:03:00,
2013-04-30 03:08:00,61.0,55.8,29.79,SSE,150,15.0,18.0,83,0.00,,CLR,0.00,0.00,VWS V14.01,2013-04-30 08:08:00,
2013-04-30 03:13:00,60.9,54.7,29.79,SSE,161,14.0,14.0,80,0.00,,CLR,0.00,0.00,VWS V14.01,2013-04-30 08:13:00,
2013-04-30 03:18:00,60.9,55.7,29.79,SSE,149,14.0,15.0,83,0.00,,CLR,0.00,0.00,VWS V14.01,2013-04-30 08:18:00,
2013-04-30 03:23:00,60.9,55.7,29.79,SSE,157,13.0,18.0,83,0.00,,CLR,0.00,0.00,VWS V14.01,2013-04-30 08:23:00,
2013-04-30 03:28:00,60.9,55.7,29.80,SSE,164,13.0,15.0,83,0.00,,CLR,0.00,0.00,VWS V14.01,2013-04-30 08:28:00,
2013-04-30 03:33:00,60.7,55.8,29.79,SE,138,10.0,12.0,84,0.00,,CLR,0.00,0.00,VWS V14.01,2013-04-30 08:33:00,
2013-04-30 03:38:00,60.9,56.0,29.79,SSE,155,11.0,15.0,84,0.00,,CLR,0.00,0.00,VWS V14.01,2013-04-30 08:38:00,
2013-04-30 03:43:00,60.7,55.8,29.80,SSE,150,11.0,13.0,84,0.00,,CLR,0.00,0.00,VWS V14.01,2013-04-30 08:43:00,
2013-04-30 03:48:00,60.5,55.7,29.80,SSE,157,8.0,14.0,84,0.00,,CLR,0.00,0.00,VWS V14.01,2013-04-30 08:48:00,
2013-04-30 03:53:00,60.5,55.7,29.80,South,169,13.0,14.0,84,0.00,,CLR,0.00,0.00,VWS V14.01,2013-04-30 08:53:00,
2013-04-30 03:58:00,60.4,55.5,29.79,South,173,13.0,18.0,84,0.00,,CLR,0.00,0.00,VWS V14.01,2013-04-30 08:58:00,
2013-04-30 04:03:00,60.4,55.5,29.79,SSE,167,10.0,19.0,84,0.00,,CLR,0.00,0.00,VWS V14.01,2013-04-30 09:03:00,
2013-04-30 04:08:00,60.4,55.5,29.79,SE,140,18.0,18.0,84,0.00,,CLR,0.00,0.00,VWS V14.01,2013-04-30 09:08:00,
2013-04-30 04:13:00,60.4,55.5,29.79,SSE,152,12.0,22.0,84,0.00,,CLR,0.00,0.00,VWS V14.01,2013-04-30 09:13:00,
2013-04-30 04:18:00,60.4,55.5,29.79,South,173,10.0,18.0,84,0.00,,CLR,0.00,0.00,VWS V14.01,2013-04-30 09:18:00,
2013-04-30 04:23:00,60.5,55.7,29.79,SSE,159,6.0,18.0,84,0.00,,CLR,0.00,0.00,VWS V14.01,2013-04-30 09:23:00,
2013-04-30 04:28:00,60.4,55.5,29.80,SSE,157,14.0,19.0,84,0.00,,CLR,0.00,0.00,VWS V14.01,2013-04-30 09:28:00,
2013-04-30 04:33:00,60.4,55.5,29.79,SSE,163,11.0,16.0,84,0.00,,CLR,0.00,0.00,VWS V14.01,2013-04-30 09:33:00,
2013-04-30 04:38:00,60.4,55.5,29.79,SSE,159,15.0,18.0,84,0.00,,CLR,0.00,0.00,VWS V14.01,2013-04-30 09:38:00,
2013-04-30 04:43:00,60.4,55.5,29.79,SSE,159,16.0,17.0,84,0.00,,CLR,0.00,0.00,VWS V14.01,2013-04-30 09:43:00,
2013-04-30 04:49:00,60.4,55.5,29.79,South,172,12.0,20.0,84,0.00,,CLR,0.00,0.00,VWS V14.01,2013-04-30 09:49:00,
2013-04-30 04:54:00,60.9,55.7,29.79,SE,146,20.0,20.0,83,0.00,,CLR,0.00,0.00,VWS V14.01,2013-04-30 09:54:00,
2013-04-30 04:59:00,60.7,55.5,29.79,SSE,163,9.0,14.0,83,0.00,,CLR,0.00,0.00,VWS V14.01,2013-04-30 09:59:00,
2013-04-30 05:04:00,60.5,55.3,29.80,South,173,16.0,24.0,83,0.00,,CLR,0.00,0.00,VWS V14.01,2013-04-30 10:04:00,
2013-04-30 05:09:00,60.4,55.5,29.79,SSE,163,14.0,14.0,84,0.00,,CLR,0.00,0.00,VWS V14.01,2013-04-30 10:09:00,
2013-04-30 05:14:00,60.2,55.3,29.79,SSE,164,14.0,15.0,84,0.00,,CLR,0.00,0.00,VWS V14.01,2013-04-30 10:14:00,
2013-04-30 05:19:00,60.4,55.5,29.80,SSE,155,9.0,15.0,84,0.00,,CLR,0.00,0.00,VWS V14.01,2013-04-30 10:19:00,
2013-04-30 05:24:00,60.4,55.5,29.80,SSE,161,7.0,11.0,84,0.00,,CLR,0.00,0.00,VWS V14.01,2013-04-30 10:24:00,
2013-04-30 05:29:00,60.1,55.3,29.80,SSE,159,15.0,15.0,84,0.00,,CLR,0.00,0.00,VWS V14.01,2013-04-30 10:29:00,
2013-04-30 05:34:00,60.1,55.3,29.80,SSE,164,10.0,14.0,84,0.00,,CLR,0.00,0.00,VWS V14.01,2013-04-30 10:34:00,
2013-04-30 05:39:00,59.9,55.1,29.80,SSE,148,15.0,16.0,84,0.00,,CLR,0.00,0.00,VWS V14.01,2013-04-30 10:39:00,
2013-04-30 05:44:00,59.8,55.0,29.80,SSE,158,9.0,14.0,84,0.00,,CLR,0.00,0.00,VWS V14.01,2013-04-30 10:44:00,
2013-04-30 05:49:00,59.8,55.0,29.80,SSE,156,11.0,11.0,84,0.00,,CLR,0.00,0.00,VWS V14.01,2013-04-30 10:49:00,
2013-04-30 05:54:00,59.8,55.0,29.81,SSE,155,13.0,13.0,84,0.00,,CLR,0.00,0.00,VWS V14.01,2013-04-30 10:54:00,
2013-04-30 05:59:00,59.8,55.0,29.81,SSE,153,10.0,10.0,84,0.00,,CLR,0.00,5.00,VWS V14.01,2013-04-30 10:59:00,
2013-04-30 06:04:00,59.8,55.3,29.81,SSE,163,10.0,13.0,85,0.00,,CLR,0.00,7.00,VWS V14.01,2013-04-30 11:04:00,
2013-04-30 06:09:00,59.6,54.8,29.82,South,171,11.0,18.0,84,0.00,,CLR,0.00,11.00,VWS V14.01,2013-04-30 11:09:00,
2013-04-30 06:14:00,59.6,55.1,29.82,South,171,7.0,11.0,85,0.00,,CLR,0.00,14.00,VWS V14.01,2013-04-30 11:14:00,
2013-04-30 06:19:00,59.8,55.3,29.82,SSE,158,9.0,15.0,85,0.00,,CLR,0.00,19.00,VWS V14.01,2013-04-30 11:19:00,
2013-04-30 06:24:00,59.8,55.0,29.83,South,169,9.0,12.0,84,0.00,,CLR,0.00,26.00,VWS V14.01,2013-04-30 11:24:00,
2013-04-30 06:29:00,59.9,55.1,29.83,South,171,7.0,9.0,84,0.00,,CLR,0.00,32.00,VWS V14.01,2013-04-30 11:29:00,
2013-04-30 06:34:00,59.9,55.1,29.83,South,171,8.0,9.0,84,0.00,,CLR,0.00,37.00,VWS V14.01,2013-04-30 11:34:00,
2013-04-30 06:39:00,60.1,55.3,29.83,SSE,164,10.0,13.0,84,0.00,,CLR,0.00,51.00,VWS V14.01,2013-04-30 11:39:00,
2013-04-30 06:44:00,60.1,55.3,29.83,SSE,158,12.0,12.0,84,0.00,,CLR,0.00,54.00,VWS V14.01,2013-04-30 11:44:00,
2013-04-30 06:50:00,60.2,55.3,29.84,SSE,163,11.0,11.0,84,0.00,,CLR,0.00,62.00,VWS V14.01,2013-04-30 11:50:00,
2013-04-30 06:55:00,60.4,55.5,29.84,SSE,165,6.0,8.0,84,0.00,,CLR,0.00,72.00,VWS V14.01,2013-04-30 11:55:00,
2013-04-30 07:00:00,60.4,55.2,29.84,SSE,163,9.0,10.0,83,0.00,,CLR,0.00,74.00,VWS V14.01,2013-04-30 12:00:00,
2013-04-30 07:05:00,60.5,55.3,29.84,SSE,164,9.0,12.0,83,0.00,,CLR,0.00,86.00,VWS V14.01,2013-04-30 12:05:00,
2013-04-30 07:10:00,60.5,55.3,29.85,SSE,160,7.0,12.0,83,0.00,,CLR,0.00,121.00,VWS V14.01,2013-04-30 12:10:00,
2013-04-30 07:15:00,60.7,55.5,29.85,South,171,7.0,10.0,83,0.00,,CLR,0.00,153.00,VWS V14.01,2013-04-30 12:15:00,
2013-04-30 07:21:00,61.2,55.7,29.84,South,173,8.0,16.0,82,0.00,,CLR,0.00,227.00,VWS V14.01,2013-04-30 12:21:00,
2013-04-30 07:26:00,61.5,55.6,29.85,South,178,9.0,19.0,81,0.00,,CLR,0.00,283.00,VWS V14.01,2013-04-30 12:26:00,
2013-04-30 07:31:00,61.8,55.9,29.85,SSE,161,13.0,13.0,81,0.00,,CLR,0.00,302.00,VWS V14.01,2013-04-30 12:31:00,
2013-04-30 07:36:00,62.1,55.9,29.85,South,178,6.0,10.0,80,0.00,,CLR,0.00,294.00,VWS V14.01,2013-04-30 12:36:00,
2013-04-30 07:41:00,62.4,56.2,29.85,SSE,163,9.0,14.0,80,0.00,,CLR,0.00,285.00,VWS V14.01,2013-04-30 12:41:00,
2013-04-30 07:46:00,62.4,55.8,29.85,South,170,9.0,12.0,79,0.00,,CLR,0.00,190.00,VWS V14.01,2013-04-30 12:46:00,
2013-04-30 07:52:00,62.7,56.1,29.85,SSE,154,15.0,18.0,79,0.00,,CLR,0.00,251.00,VWS V14.01,2013-04-30 12:52:00,
2013-04-30 07:57:00,62.9,56.3,29.85,SE,142,10.0,17.0,79,0.00,,CLR,0.00,232.00,VWS V14.01,2013-04-30 12:57:00,
2013-04-30 08:02:00,63.2,56.2,29.85,SSE,157,13.0,14.0,78,0.00,,CLR,0.00,207.00,VWS V14.01,2013-04-30 13:02:00,
2013-04-30 08:07:00,63.2,56.2,29.85,SSE,164,8.0,14.0,78,0.00,,CLR,0.00,178.00,VWS V14.01,2013-04-30 13:07:00,
2013-04-30 08:12:00,63.2,56.2,29.85,SSE,153,6.0,10.0,78,0.00,,CLR,0.00,218.00,VWS V14.01,2013-04-30 13:12:00,
2013-04-30 08:17:00,63.4,56.4,29.85,SSE,165,8.0,12.0,78,0.00,,CLR,0.00,185.00,VWS V14.01,2013-04-30 13:17:00,
2013-04-30 08:22:00,63.4,56.4,29.85,SSE,159,13.0,18.0,78,0.00,,CLR,0.00,179.00,VWS V14.01,2013-04-30 13:22:00,
2013-04-30 08:27:00,63.5,56.5,29.85,South,179,9.0,10.0,78,0.00,,CLR,0.00,167.00,VWS V14.01,2013-04-30 13:27:00,
2013-04-30 08:32:00,63.5,56.5,29.85,SSE,166,8.0,16.0,78,0.00,,CLR,0.00,174.00,VWS V14.01,2013-04-30 13:32:00,
2013-04-30 08:37:00,63.7,56.7,29.85,SSE,162,6.0,11.0,78,0.00,,CLR,0.00,163.00,VWS V14.01,2013-04-30 13:37:00,
2013-04-30 08:42:00,63.7,56.4,29.85,SSE,159,10.0,12.0,77,0.00,,CLR,0.00,165.00,VWS V14.01,2013-04-30 13:42:00,
2013-04-30 08:48:00,63.9,56.6,29.85,SSE,164,10.0,13.0,77,0.00,,CLR,0.00,185.00,VWS V14.01,2013-04-30 13:48:00,
2013-04-30 08:53:00,63.9,56.6,29.85,SSE,160,12.0,15.0,77,0.00,,CLR,0.00,158.00,VWS V14.01,2013-04-30 13:53:00,
2013-04-30 08:58:00,64.0,56.7,29.84,SSE,155,15.0,15.0,77,0.00,,CLR,0.00,190.00,VWS V14.01,2013-04-30 13:58:00,
2013-04-30 09:03:00,64.2,56.8,29.84,SSE,152,10.0,12.0,77,0.00,,CLR,0.00,264.00,VWS V14.01,2013-04-30 14:03:00,
2013-04-30 09:08:00,64.5,57.1,29.84,SSE,158,11.0,12.0,77,0.00,,CLR,0.00,297.00,VWS V14.01,2013-04-30 14:08:00,
2013-04-30 09:13:00,64.7,57.0,29.84,SSE,159,14.0,15.0,76,0.00,,CLR,0.00,394.00,VWS V14.01,2013-04-30 14:13:00,
2013-04-30 09:18:00,65.2,57.5,29.84,SSE,161,15.0,15.0,76,0.00,,CLR,0.00,462.00,VWS V14.01,2013-04-30 14:18:00,
2013-04-30 09:23:00,65.5,57.4,29.84,SSE,153,10.0,10.0,75,0.00,,CLR,0.00,485.00,VWS V14.01,2013-04-30 14:23:00,
2013-04-30 09:28:00,66.0,57.5,29.84,SSE,147,14.0,14.0,74,0.00,,CLR,0.00,552.00,VWS V14.01,2013-04-30 14:28:00,
2013-04-30 09:34:00,66.4,57.5,29.84,SSE,152,9.0,12.0,73,0.00,,CLR,0.00,619.00,VWS V14.01,2013-04-30 14:34:00,
2013-04-30 09:39:00,66.9,58.0,29.84,SSE,157,8.0,12.0,73,0.00,,CLR,0.00,520.00,VWS V14.01,2013-04-30 14:39:00,
2013-04-30 09:44:00,67.3,58.0,29.84,SSE,153,14.0,14.0,72,0.00,,CLR,0.00,601.00,VWS V14.01,2013-04-30 14:44:00,
2013-04-30 09:49:00,67.4,58.1,29.84,SE,140,9.0,9.0,72,0.00,,CLR,0.00,606.00,VWS V14.01,2013-04-30 14:49:00,
2013-04-30 09:54:00,67.9,57.8,29.84,SSE,162,12.0,15.0,70,0.00,,CLR,0.00,680.00,VWS V14.01,2013-04-30 14:54:00,
2013-04-30 09:59:00,68.3,58.2,29.84,South,179,9.0,11.0,70,0.00,,CLR,0.00,715.00,VWS V14.01,2013-04-30 14:59:00,
2013-04-30 10:04:00,68.3,58.2,29.84,SE,146,11.0,19.0,70,0.00,,CLR,0.00,737.00,VWS V14.01,2013-04-30 15:04:00,
2013-04-30 10:09:00,68.8,58.6,29.84,SSE,157,13.0,17.0,70,0.00,,CLR,0.00,737.00,VWS V14.01,2013-04-30 15:09:00,
2013-04-30 10:14:00,69.1,58.1,29.84,South,176,8.0,17.0,68,0.00,,CLR,0.00,765.00,VWS V14.01,2013-04-30 15:14:00,
2013-04-30 10:19:00,69.6,58.2,29.84,SSE,161,12.0,15.0,67,0.00,,CLR,0.00,779.00,VWS V14.01,2013-04-30 15:19:00,
2013-04-30 10:24:00,69.9,58.9,29.85,South,175,7.0,13.0,68,0.00,,CLR,0.00,786.00,VWS V14.01,2013-04-30 15:24:00,
2013-04-30 10:29:00,70.4,58.5,29.84,SSE,167,8.0,10.0,66,0.00,,CLR,0.00,796.00,VWS V14.01,2013-04-30 15:29:00,
2013-04-30 10:34:00,70.9,59.0,29.84,SSE,156,13.0,14.0,66,0.00,,CLR,0.00,795.00,VWS V14.01,2013-04-30 15:34:00,
2013-04-30 10:39:00,71.1,58.8,29.84,SSE,156,14.0,16.0,65,0.00,,CLR,0.00,795.00,VWS V14.01,2013-04-30 15:39:00,
2013-04-30 10:44:00,71.3,59.4,29.84,SSE,168,9.0,15.0,66,0.00,,CLR,0.00,795.00,VWS V14.01,2013-04-30 15:44:00,
2013-04-30 10:49:00,71.6,58.8,29.84,SE,144,9.0,12.0,64,0.00,,CLR,0.00,810.00,VWS V14.01,2013-04-30 15:49:00,
2013-04-30 10:54:00,72.1,59.7,29.85,South,175,10.0,12.0,65,0.00,,CLR,0.00,816.00,VWS V14.01,2013-04-30 15:54:00,
2013-04-30 10:59:00,72.1,59.3,29.85,SSE,150,8.0,11.0,64,0.00,,CLR,0.00,823.00,VWS V14.01,2013-04-30 15:59:00,
2013-04-30 11:04:00,72.5,59.6,29.85,South,169,9.0,15.0,64,0.00,,CLR,0.00,837.00,VWS V14.01,2013-04-30 16:04:00,
2013-04-30 11:09:00,73.2,59.4,29.85,SSE,163,7.0,11.0,62,0.00,,CLR,0.00,765.00,VWS V14.01,2013-04-30 16:09:00,
2013-04-30 11:14:00,73.5,57.8,29.84,SSE,167,8.0,12.0,58,0.00,,CLR,0.00,872.00,VWS V14.01,2013-04-30 16:14:00,
2013-04-30 11:19:00,73.7,59.0,29.85,SSE,166,11.0,13.0,60,0.00,,CLR,0.00,888.00,VWS V14.01,2013-04-30 16:19:00,
2013-04-30 11:24:00,73.9,58.7,29.84,South,175,8.0,10.0,59,0.00,,CLR,0.00,900.00,VWS V14.01,2013-04-30 16:24:00,
2013-04-30 11:29:00,74.0,58.8,29.84,SSW,201,2.0,8.0,59,0.00,,CLR,0.00,858.00,VWS V14.01,2013-04-30 16:29:00,
2013-04-30 11:34:00,74.2,59.0,29.84,SSE,167,10.0,17.0,59,0.00,,CLR,0.00,893.00,VWS V14.01,2013-04-30 16:34:00,
2013-04-30 11:39:00,74.4,59.2,29.84,SSE,157,13.0,13.0,59,0.00,,CLR,0.00,881.00,VWS V14.01,2013-04-30 16:39:00,
2013-04-30 11:44:00,74.6,58.9,29.84,South,170,9.0,17.0,58,0.00,,CLR,0.00,896.00,VWS V14.01,2013-04-30 16:44:00,
2013-04-30 11:49:00,74.7,59.4,29.84,South,184,7.0,10.0,59,0.00,,CLR,0.00,907.00,VWS V14.01,2013-04-30 16:49:00,
2013-04-30 11:54:00,75.1,59.3,29.83,SSE,165,9.0,9.0,58,0.00,,CLR,0.00,932.00,VWS V14.01,2013-04-30 16:54:00,
2013-04-30 11:59:00,75.1,59.3,29.84,South,171,6.0,13.0,58,0.00,,CLR,0.00,930.00,VWS V14.01,2013-04-30 16:59:00,
2013-04-30 12:04:00,75.4,59.6,29.83,SSW,202,7.0,12.0,58,0.00,,CLR,0.00,925.00,VWS V14.01,2013-04-30 17:04:00,
2013-04-30 12:09:00,76.0,59.7,29.84,South,175,9.0,13.0,57,0.00,,CLR,0.00,939.00,VWS V14.01,2013-04-30 17:09:00,
2013-04-30 12:15:00,76.1,59.8,29.84,SSE,165,9.0,13.0,57,0.00,,CLR,0.00,882.00,VWS V14.01,2013-04-30 17:15:00,
2013-04-30 12:20:00,76.3,60.0,29.83,SSE,165,7.0,8.0,57,0.00,,CLR,0.00,907.00,VWS V14.01,2013-04-30 17:20:00,
2013-04-30 12:25:00,76.7,60.8,29.83,SSE,165,11.0,11.0,58,0.00,,CLR,0.00,935.00,VWS V14.01,2013-04-30 17:25:00,
2013-04-30 12:31:00,76.8,59.4,29.83,South,169,7.0,11.0,55,0.00,,CLR,0.00,904.00,VWS V14.01,2013-04-30 17:31:00,
2013-04-30 12:36:00,76.8,60.4,29.83,SSE,159,15.0,15.0,57,0.00,,CLR,0.00,904.00,VWS V14.01,2013-04-30 17:36:00,
2013-04-30 12:41:00,77.0,59.6,29.83,South,175,5.0,14.0,55,0.00,,CLR,0.00,921.00,VWS V14.01,2013-04-30 17:41:00,
2013-04-30 12:46:00,77.2,59.8,29.83,South,178,11.0,19.0,55,0.00,,CLR,0.00,889.00,VWS V14.01,2013-04-30 17:46:00,
2013-04-30 12:51:00,77.2,59.8,29.83,SSE,168,6.0,8.0,55,0.00,,CLR,0.00,805.00,VWS V14.01,2013-04-30 17:51:00,
2013-04-30 12:56:00,77.9,59.9,29.83,SSW,199,5.0,9.0,54,0.00,,CLR,0.00,928.00,VWS V14.01,2013-04-30 17:56:00,
2013-04-30 13:01:00,78.1,60.6,29.83,South,184,5.0,8.0,55,0.00,,CLR,0.00,900.00,VWS V14.01,2013-04-30 18:01:00,
2013-04-30 13:06:00,77.9,59.9,29.83,SSE,167,11.0,18.0,54,0.00,,CLR,0.00,893.00,VWS V14.01,2013-04-30 18:06:00,
2013-04-30 13:11:00,77.9,59.9,29.83,SSE,164,9.0,10.0,54,0.00,,CLR,0.00,911.00,VWS V14.01,2013-04-30 18:11:00,
2013-04-30 13:16:00,78.3,60.3,29.82,South,186,11.0,13.0,54,0.00,,CLR,0.00,918.00,VWS V14.01,2013-04-30 18:16:00,
2013-04-30 13:21:00,78.6,60.1,29.82,SE,145,10.0,11.0,53,0.00,,CLR,0.00,926.00,VWS V14.01,2013-04-30 18:21:00,
2013-04-30 13:26:00,78.8,59.7,29.82,SSE,163,9.0,13.0,52,0.00,,CLR,0.00,925.00,VWS V14.01,2013-04-30 18:26:00,
2013-04-30 13:31:00,78.8,58.6,29.82,South,176,7.0,10.0,50,0.00,,CLR,0.00,928.00,VWS V14.01,2013-04-30 18:31:00,
2013-04-30 13:36:00,79.0,59.3,29.82,South,175,10.0,12.0,51,0.00,,CLR,0.00,909.00,VWS V14.01,2013-04-30 18:36:00,
2013-04-30 13:41:00,79.2,60.1,29.82,South,180,11.0,15.0,52,0.00,,CLR,0.00,902.00,VWS V14.01,2013-04-30 18:41:00,
2013-04-30 13:47:00,79.2,59.0,29.82,SSE,155,13.0,20.0,50,0.00,,CLR,0.00,914.00,VWS V14.01,2013-04-30 18:47:00,
2013-04-30 13:52:00,79.4,58.6,29.82,SE,139,12.0,17.0,49,0.00,,CLR,0.00,937.00,VWS V14.01,2013-04-30 18:52:00,
2013-04-30 13:57:00,79.6,58.2,29.82,SSE,162,8.0,16.0,48,0.00,,CLR,0.00,939.00,VWS V14.01,2013-04-30 18:57:00,
2013-04-30 14:02:00,79.6,58.8,29.82,SSE,168,12.0,14.0,49,0.00,,CLR,0.00,928.00,VWS V14.01,2013-04-30 19:02:00,
2013-04-30 14:07:00,79.9,57.9,29.81,SSE,163,12.0,12.0,47,0.00,,CLR,0.00,923.00,VWS V14.01,2013-04-30 19:07:00,
2013-04-30 14:12:00,79.9,58.5,29.81,South,177,11.0,13.0,48,0.00,,CLR,0.00,907.00,VWS V14.01,2013-04-30 19:12:00,
2013-04-30 14:17:00,80.1,56.2,29.81,SSE,156,15.0,18.0,44,0.00,,CLR,0.00,891.00,VWS V14.01,2013-04-30 19:17:00,
2013-04-30 14:23:00,80.3,58.2,29.81,SSE,152,13.0,14.0,47,0.00,,CLR,0.00,888.00,VWS V14.01,2013-04-30 19:23:00,
2013-04-30 14:28:00,80.7,56.8,29.81,South,169,6.0,17.0,44,0.00,,CLR,0.00,882.00,VWS V14.01,2013-04-30 19:28:00,
2013-04-30 14:33:00,80.7,56.8,29.81,South,174,9.0,17.0,44,0.00,,CLR,0.00,863.00,VWS V14.01,2013-04-30 19:33:00,
2013-04-30 14:38:00,80.7,58.0,29.81,SSW,207,6.0,14.0,46,0.00,,CLR,0.00,856.00,VWS V14.01,2013-04-30 19:38:00,
2013-04-30 14:43:00,81.1,58.4,29.81,SSW,194,8.0,14.0,46,0.00,,CLR,0.00,854.00,VWS V14.01,2013-04-30 19:43:00,
2013-04-30 14:49:00,81.2,57.2,29.81,South,179,8.0,15.0,44,0.00,,CLR,0.00,846.00,VWS V14.01,2013-04-30 19:49:00,
2013-04-30 14:54:00,80.9,57.6,29.81,South,180,6.0,11.0,45,0.00,,CLR,0.00,840.00,VWS V14.01,2013-04-30 19:54:00,
2013-04-30 14:59:00,81.1,58.4,29.81,SSE,163,16.0,16.0,46,0.00,,CLR,0.00,838.00,VWS V14.01,2013-04-30 19:59:00,
2013-04-30 15:04:00,81.1,57.8,29.81,South,176,8.0,8.0,45,0.00,,CLR,0.00,824.00,VWS V14.01,2013-04-30 20:04:00,
2013-04-30 15:09:00,81.2,57.2,29.81,SSE,155,7.0,12.0,44,0.00,,CLR,0.00,826.00,VWS V14.01,2013-04-30 20:09:00,
2013-04-30 15:14:00,81.2,56.6,29.81,SE,141,17.0,17.0,43,0.00,,CLR,0.00,816.00,VWS V14.01,2013-04-30 20:14:00,
2013-04-30 15:19:00,81.4,57.4,29.81,South,172,7.0,11.0,44,0.00,,CLR,0.00,809.00,VWS V14.01,2013-04-30 20:19:00,
2013-04-30 15:24:00,81.2,56.6,29.81,SSE,164,9.0,19.0,43,0.00,,CLR,0.00,786.00,VWS V14.01,2013-04-30 20:24:00,
2013-04-30 15:29:00,81.8,57.1,29.80,South,173,11.0,15.0,43,0.00,,CLR,0.00,780.00,VWS V14.01,2013-04-30 20:29:00,
2013-04-30 15:35:00,81.6,58.2,29.80,South,185,8.0,9.0,45,0.00,,CLR,0.00,770.00,VWS V14.01,2013-04-30 20:35:00,
2013-04-30 15:40:00,81.6,57.0,29.81,SSE,168,12.0,21.0,43,0.00,,CLR,0.00,756.00,VWS V14.01,2013-04-30 20:40:00,
2013-04-30 15:45:00,81.8,55.8,29.80,SSE,153,16.0,19.0,41,0.00,,CLR,0.00,747.00,VWS V14.01,2013-04-30 20:45:00,
2013-04-30 15:50:00,81.8,56.5,29.80,SSE,148,11.0,16.0,42,0.00,,CLR,0.00,731.00,VWS V14.01,2013-04-30 20:50:00,
2013-04-30 15:55:00,82.0,56.7,29.80,SSE,153,8.0,15.0,42,0.00,,CLR,0.00,721.00,VWS V14.01,2013-04-30 20:55:00,
2013-04-30 16:01:00,82.0,56.0,29.80,South,170,10.0,15.0,41,0.00,,CLR,0.00,700.00,VWS V14.01,2013-04-30 21:01:00,
2013-04-30 16:06:00,81.8,55.1,29.81,SSE,162,16.0,18.0,40,0.00,,CLR,0.00,694.00,VWS V14.01,2013-04-30 21:06:00,
2013-04-30 16:12:00,82.2,54.8,29.81,South,177,6.0,10.0,39,0.00,,CLR,0.00,671.00,VWS V14.01,2013-04-30 21:12:00,
2013-04-30 16:17:00,82.6,55.2,29.81,SSE,160,10.0,11.0,39,0.00,,CLR,0.00,643.00,VWS V14.01,2013-04-30 21:17:00,
2013-04-30 16:22:00,82.2,55.5,29.81,SSE,167,19.0,24.0,40,0.00,,CLR,0.00,640.00,VWS V14.01,2013-04-30 21:22:00,
2013-04-30 16:28:00,81.8,56.5,29.81,SSE,167,10.0,14.0,42,0.00,,CLR,0.00,619.00,VWS V14.01,2013-04-30 21:28:00,
2013-04-30 16:33:00,81.4,56.1,29.82,SSE,164,6.0,18.0,42,0.00,,CLR,0.00,601.00,VWS V14.01,2013-04-30 21:33:00,
2013-04-30 16:38:00,81.6,55.6,29.82,SSE,159,15.0,18.0,41,0.00,,CLR,0.00,592.00,VWS V14.01,2013-04-30 21:38:00,
2013-04-30 16:43:00,81.6,56.3,29.82,South,178,8.0,14.0,42,0.00,,CLR,0.00,582.00,VWS V14.01,2013-04-30 21:43:00,
2013-04-30 16:49:00,81.6,54.3,29.82,South,170,13.0,17.0,39,0.00,,CLR,0.00,547.00,VWS V14.01,2013-04-30 21:49:00,
2013-04-30 16:54:00,81.6,55.6,29.82,SE,145,18.0,18.0,41,0.00,,CLR,0.00,541.00,VWS V14.01,2013-04-30 21:54:00,
2013-04-30 16:59:00,81.4,54.8,29.82,SSE,162,9.0,12.0,40,0.00,,CLR,0.00,531.00,VWS V14.01,2013-04-30 21:59:00,
2013-04-30 17:04:00,81.6,54.3,29.82,SSE,156,12.0,17.0,39,0.00,,CLR,0.00,508.00,VWS V14.01,2013-04-30 22:04:00,
2013-04-30 17:09:00,81.6,53.6,29.82,South,191,9.0,14.0,38,0.00,,CLR,0.00,478.00,VWS V14.01,2013-04-30 22:09:00,
2013-04-30 17:14:00,81.4,54.1,29.82,South,178,10.0,14.0,39,0.00,,CLR,0.00,469.00,VWS V14.01,2013-04-30 22:14:00,
2013-04-30 17:20:00,81.6,54.3,29.82,SE,144,7.0,12.0,39,0.00,,CLR,0.00,452.00,VWS V14.01,2013-04-30 22:20:00,
2013-04-30 17:25:00,81.4,52.7,29.82,South,173,9.0,21.0,37,0.00,,CLR,0.00,432.00,VWS V14.01,2013-04-30 22:25:00,
2013-04-30 17:30:00,81.2,53.2,29.83,SSE,163,18.0,18.0,38,0.00,,CLR,0.00,425.00,VWS V14.01,2013-04-30 22:30:00,
2013-04-30 17:35:00,81.1,53.1,29.83,SSE,153,14.0,16.0,38,0.00,,CLR,0.00,397.00,VWS V14.01,2013-04-30 22:35:00,
2013-04-30 17:41:00,81.1,54.5,29.83,South,171,15.0,22.0,40,0.00,,CLR,0.00,383.00,VWS V14.01,2013-04-30 22:41:00,
2013-04-30 17:46:00,81.1,55.2,29.83,SSE,165,9.0,14.0,41,0.00,,CLR,0.00,364.00,VWS V14.01,2013-04-30 22:46:00,
2013-04-30 17:52:00,80.9,55.0,29.83,SSE,165,13.0,15.0,41,0.00,,CLR,0.00,320.00,VWS V14.01,2013-04-30 22:52:00,
2013-04-30 17:57:00,80.7,54.2,29.83,South,178,12.0,15.0,40,0.00,,CLR,0.00,297.00,VWS V14.01,2013-04-30 22:57:00,
2013-04-30 18:02:00,80.7,53.5,29.84,South,178,8.0,11.0,39,0.00,,CLR,0.00,294.00,VWS V14.01,2013-04-30 23:02:00,
2013-04-30 18:07:00,80.5,54.0,29.84,SSE,147,7.0,12.0,40,0.00,,CLR,0.00,279.00,VWS V14.01,2013-04-30 23:07:00,
2013-04-30 18:13:00,80.5,54.0,29.84,South,169,9.0,14.0,40,0.00,,CLR,0.00,272.00,VWS V14.01,2013-04-30 23:13:00,
2013-04-30 18:18:00,80.1,52.9,29.84,SSE,150,18.0,18.0,39,0.00,,CLR,0.00,250.00,VWS V14.01,2013-04-30 23:18:00,
2013-04-30 18:23:00,80.1,52.2,29.84,South,177,12.0,18.0,38,0.00,,CLR,0.00,225.00,VWS V14.01,2013-04-30 23:23:00,
2013-04-30 18:28:00,79.9,51.3,29.84,SSE,156,16.0,19.0,37,0.00,,CLR,0.00,216.00,VWS V14.01,2013-04-30 23:28:00,
2013-04-30 18:33:00,79.8,52.0,29.85,SSE,158,14.0,16.0,38,0.00,,CLR,0.00,195.00,VWS V14.01,2013-04-30 23:33:00,
2013-04-30 18:38:00,79.6,52.5,29.85,SSE,163,14.0,17.0,39,0.00,,CLR,0.00,90.00,VWS V14.01,2013-04-30 23:38:00,
2013-04-30 18:43:00,79.4,52.3,29.84,SSE,165,4.0,13.0,39,0.00,,CLR,0.00,49.00,VWS V14.01,2013-04-30 23:43:00,
2013-04-30 18:48:00,79.2,51.4,29.85,SSE,165,10.0,15.0,38,0.00,,CLR,0.00,44.00,VWS V14.01,2013-04-30 23:48:00,
2013-04-30 18:53:00,78.8,51.8,29.85,SSE,158,14.0,14.0,39,0.00,,CLR,0.00,39.00,VWS V14.01,2013-04-30 23:53:00,
2013-04-30 18:58:00,78.6,53.0,29.85,SSE,156,8.0,15.0,41,0.00,,CLR,0.00,33.00,VWS V14.01,2013-04-30 23:58:00,
2013-04-30 19:04:00,78.3,54.0,29.85,SSE,153,5.0,9.0,43,0.00,,CLR,0.00,30.00,VWS V14.01,2013-05-01 00:04:00,
2013-04-30 19:09:00,78.1,53.8,29.85,SSE,149,14.0,14.0,43,0.00,,CLR,0.00,30.00,VWS V14.01,2013-05-01 00:09:00,
2013-04-30 19:14:00,78.1,54.4,29.85,SSE,160,12.0,18.0,44,0.00,,CLR,0.00,35.00,VWS V14.01,2013-05-01 00:14:00,
2013-04-30 19:19:00,77.9,54.9,29.85,SSE,163,9.0,12.0,45,0.00,,CLR,0.00,21.00,VWS V14.01,2013-05-01 00:19:00,
2013-04-30 19:25:00,77.6,55.2,29.85,SSE,164,7.0,10.0,46,0.00,,CLR,0.00,18.00,VWS V14.01,2013-05-01 00:25:00,
2013-04-30 19:30:00,77.2,55.4,29.85,SSE,148,9.0,12.0,47,0.00,,CLR,0.00,14.00,VWS V14.01,2013-05-01 00:30:00,
2013-04-30 19:35:00,77.2,55.4,29.85,SSE,155,7.0,12.0,47,0.00,,CLR,0.00,11.00,VWS V14.01,2013-05-01 00:35:00,
2013-04-30 19:40:00,76.8,55.7,29.85,SSE,163,7.0,11.0,48,0.00,,CLR,0.00,9.00,VWS V14.01,2013-05-01 00:40:00,
2013-04-30 19:45:00,76.7,56.1,29.85,SSE,161,6.0,12.0,49,0.00,,CLR,0.00,7.00,VWS V14.01,2013-05-01 00:45:00,
2013-04-30 19:50:00,76.5,56.5,29.86,SSE,161,6.0,11.0,50,0.00,,CLR,0.00,0.00,VWS V14.01,2013-05-01 00:50:00,
2013-04-30 19:56:00,76.1,56.1,29.86,SSE,160,10.0,10.0,50,0.00,,CLR,0.00,0.00,VWS V14.01,2013-05-01 00:56:00,
2013-04-30 20:01:00,76.1,56.7,29.86,SSE,156,6.0,10.0,51,0.00,,CLR,0.00,0.00,VWS V14.01,2013-05-01 01:01:00,
2013-04-30 20:07:00,76.0,56.6,29.86,SSE,159,8.0,9.0,51,0.00,,CLR,0.00,0.00,VWS V14.01,2013-05-01 01:07:00,
2013-04-30 20:12:00,75.8,56.4,29.86,SSE,161,6.0,9.0,51,0.00,,CLR,0.00,0.00,VWS V14.01,2013-05-01 01:12:00,
2013-04-30 20:18:00,75.8,56.4,29.86,SSE,159,6.0,8.0,51,0.00,,CLR,0.00,0.00,VWS V14.01,2013-05-01 01:18:00,
2013-04-30 20:23:00,75.8,56.4,29.86,SSE,153,7.0,12.0,51,0.00,,CLR,0.00,0.00,VWS V14.01,2013-05-01 01:23:00,
2013-04-30 20:28:00,75.6,56.2,29.86,SSE,150,7.0,11.0,51,0.00,,CLR,0.00,0.00,VWS V14.01,2013-05-01 01:28:00,
2013-04-30 20:33:00,75.6,56.8,29.87,SE,126,5.0,8.0,52,0.00,,CLR,0.00,0.00,VWS V14.01,2013-05-01 01:33:00,
2013-04-30 20:38:00,75.1,57.3,29.87,SSE,162,7.0,13.0,54,0.00,,CLR,0.00,0.00,VWS V14.01,2013-05-01 01:38:00,
2013-04-30 20:43:00,74.7,57.0,29.87,SE,134,6.0,9.0,54,0.00,,CLR,0.00,0.00,VWS V14.01,2013-05-01 01:43:00,
2013-04-30 20:49:00,74.4,57.2,29.87,South,169,9.0,15.0,55,0.00,,CLR,0.00,0.00,VWS V14.01,2013-05-01 01:49:00,
2013-04-30 20:54:00,73.9,57.7,29.87,SE,138,11.0,15.0,57,0.00,,CLR,0.00,0.00,VWS V14.01,2013-05-01 01:54:00,
2013-04-30 21:00:00,73.7,58.0,29.88,ESE,121,13.0,13.0,58,0.00,,CLR,0.00,0.00,VWS V14.01,2013-05-01 02:00:00,
2013-04-30 21:05:00,73.3,58.1,29.88,SSE,163,8.0,11.0,59,0.00,,CLR,0.00,0.00,VWS V14.01,2013-05-01 02:05:00,
2013-04-30 21:10:00,73.2,59.0,29.88,SE,140,11.0,11.0,61,0.00,,CLR,0.00,0.00,VWS V14.01,2013-05-01 02:10:00,
2013-04-30 21:16:00,73.0,58.8,29.88,SSE,152,8.0,11.0,61,0.00,,CLR,0.00,0.00,VWS V14.01,2013-05-01 02:16:00,
2013-04-30 21:21:00,72.8,59.0,29.88,SSE,147,6.0,10.0,62,0.00,,CLR,0.00,0.00,VWS V14.01,2013-05-01 02:21:00,
2013-04-30 21:26:00,72.7,59.4,29.88,SSE,151,13.0,13.0,63,0.00,,CLR,0.00,0.00,VWS V14.01,2013-05-01 02:26:00,
2013-04-30 21:31:00,72.5,59.2,29.88,SE,138,11.0,15.0,63,0.00,,CLR,0.00,0.00,VWS V14.01,2013-05-01 02:31:00,
2013-04-30 21:36:00,72.3,59.0,29.88,SE,131,13.0,13.0,63,0.00,,CLR,0.00,0.00,VWS V14.01,2013-05-01 02:36:00,
2013-04-30 21:41:00,72.3,59.0,29.88,SE,140,10.0,12.0,63,0.00,,CLR,0.00,0.00,VWS V14.01,2013-05-01 02:41:00,
2013-04-30 21:46:00,72.1,58.8,29.89,SSE,153,12.0,16.0,63,0.00,,CLR,0.00,0.00,VWS V14.01,2013-05-01 02:46:00,
2013-04-30 21:52:00,72.0,59.2,29.89,SSE,157,13.0,15.0,64,0.00,,CLR,0.00,0.00,VWS V14.01,2013-05-01 02:52:00,
2013-04-30 21:57:00,71.8,59.0,29.89,SE,140,9.0,15.0,64,0.00,,CLR,0.00,0.00,VWS V14.01,2013-05-01 02:57:00,
2013-04-30 22:02:00,71.8,59.0,29.89,SE,134,12.0,13.0,64,0.00,,CLR,0.00,0.00,VWS V14.01,2013-05-01 03:02:00,
2013-04-30 22:08:00,71.6,59.2,29.89,SE,144,9.0,12.0,65,0.00,,CLR,0.00,0.00,VWS V14.01,2013-05-01 03:08:00,
2013-04-30 22:13:00,71.6,58.8,29.89,SE,139,9.0,12.0,64,0.00,,CLR,0.00,0.00,VWS V14.01,2013-05-01 03:13:00,
2013-04-30 22:18:00,71.8,58.5,29.89,SSE,162,17.0,17.0,63,0.00,,CLR,0.00,0.00,VWS V14.01,2013-05-01 03:18:00,
2013-04-30 22:23:00,72.0,58.3,29.89,SE,139,18.0,19.0,62,0.00,,CLR,0.00,0.00,VWS V14.01,2013-05-01 03:23:00,
2013-04-30 22:28:00,72.0,57.8,29.89,South,170,9.0,12.0,61,0.00,,CLR,0.00,0.00,VWS V14.01,2013-05-01 03:28:00,
2013-04-30 22:33:00,72.1,57.9,29.90,South,171,12.0,14.0,61,0.00,,CLR,0.00,0.00,VWS V14.01,2013-05-01 03:33:00,
2013-04-30 22:38:00,72.1,57.5,29.90,SE,145,10.0,13.0,60,0.00,,CLR,0.00,0.00,VWS V14.01,2013-05-01 03:38:00,
2013-04-30 22:43:00,72.0,57.8,29.89,SSE,159,12.0,12.0,61,0.00,,CLR,0.00,0.00,VWS V14.01,2013-05-01 03:43:00,
2013-04-30 22:49:00,71.8,57.6,29.90,SSE,154,10.0,14.0,61,0.00,,CLR,0.00,0.00,VWS V14.01,2013-05-01 03:49:00,
2013-04-30 22:54:00,71.6,57.5,29.90,SE,128,12.0,12.0,61,0.00,,CLR,0.00,0.00,VWS V14.01,2013-05-01 03:54:00,
2013-04-30 23:00:00,71.6,57.5,29.90,SSE,167,15.0,15.0,61,0.00,,CLR,0.00,0.00,VWS V14.01,2013-05-01 04:00:00,
2013-04-30 23:01:00,71.6,57.5,29.90,SE,145,10.0,17.0,61,0.00,,CLR,0.00,0.00,VWS V14.01,2013-05-01 04:01:00,
2013-04-30 23:02:00,71.5,57.4,29.90,South,170,7.0,10.0,61,0.00,,CLR,0.00,0.00,VWS V14.01,2013-05-01 04:02:00,
2013-04-30 23:03:00,71.5,57.4,29.90,SSE,155,10.0,15.0,61,0.00,,CLR,0.00,0.00,VWS V14.01,2013-05-01 04:03:00,
2013-04-30 23:05:00,71.5,57.4,29.90,SE,138,12.0,12.0,61,0.00,,CLR,0.00,0.00,VWS V14.01,2013-05-01 04:05:00,
2013-04-30 23:11:00,71.3,57.2,29.90,SSE,151,7.0,14.0,61,0.00,,CLR,0.00,0.00,VWS V14.01,2013-05-01 04:11:00,
2013-04-30 23:14:00,71.1,57.4,29.90,SE,137,13.0,15.0,62,0.00,,CLR,0.00,0.00,VWS V14.01,2013-05-01 04:14:00,
2013-04-30 23:19:00,71.1,57.4,29.91,SE,145,10.0,12.0,62,0.00,,CLR,0.00,0.00,VWS V14.01,2013-05-01 04:19:00,
2013-04-30 23:25:00,70.9,57.2,29.91,SSE,162,7.0,13.0,62,0.00,,CLR,0.00,0.00,VWS V14.01,2013-05-01 04:25:00,
2013-04-30 23:31:00,70.6,57.4,29.91,SSE,153,11.0,15.0,63,0.00,,CLR,0.00,0.00,VWS V14.01,2013-05-01 04:31:00,
2013-04-30 23:36:00,70.6,57.0,29.91,SSE,148,14.0,14.0,62,0.00,,CLR,0.00,0.00,VWS V14.01,2013-05-01 04:36:00,
2013-04-30 23:41:00,70.4,57.2,29.91,SSE,158,12.0,18.0,63,0.00,,CLR,0.00,0.00,VWS V14.01,2013-05-01 04:41:00,
2013-04-30 23:46:00,70.1,56.9,29.91,SSE,148,7.0,11.0,63,0.00,,CLR,0.00,0.00,VWS V14.01,2013-05-01 04:46:00,
2013-04-30 23:51:00,70.1,57.4,29.92,South,170,9.0,12.0,64,0.00,,CLR,0.00,0.00,VWS V14.01,2013-05-01 04:51:00,
2013-04-30 23:56:00,69.9,57.2,29.92,SE,146,9.0,11.0,64,0.00,,CLR,0.00,0.00,VWS V14.01,2013-05-01 04:56:00,